Location: Allentsteig
(48.6833°N, 15.3167°E)
Time: 01:57:10
(UTC+00:00)

Landsat 7 - Pass Details

Date: 18 September 2020
Orbit: 701 x 703 km, 98.1° (Epoch: 31 October)

Event Time Altitude Azimuth Distance (km) Brightness Sun altitude
Exits shadow 19:25:44 45° 61° (ENE) 964 4.2 -22.9°
Drops below altitude 10° 19:30:05 10° 357° (N) 2,184 6.8 -23.6°
Sets 19:32:25 0° 352° (N) 3,107 7.7 -23.9°
